Regional Weather Roundup
Issued by NWS Albany, NY

Home | Current Version | Previous Version | Graphics & Text | Print | Product List | Glossary Off
Versions: 1 2 3 4 5 6 7 8 9 10 11 12 13 14 15 16 17 18 19 20 21 22 23 24 25 26 27 28 29 30 31 32 33 34 35 36 37 38 39 40 41 42 43 44 45 46 47 48 49 50

000
ASUS41 KALY 190710
RWRALY

NEW YORK STATE HOURLY WEATHER ROUNDUP
NATIONAL WEATHER SERVICE ALBANY NY
300 AM EDT FRI SEP 19 2014

NOTE: "FAIR" INDICATES FEW OR NO CLOUDS BELOW 12,000 FEET WITH NO
SIGNIFICANT WEATHER AND/OR NO OBSTRUCTIONS TO VISIBILITY.

NYZ032-033-038>043-046>054-057>066-NYZ062>081-190800-
EAST


CITY           SKY/WX    TMP DP  RH WIND       PRES   REMARKS
ALBANY         PTCLDY    46  36  68 N10       30.26R
GLENS FALLS    CLEAR     37  35  92 CALM      30.27R
POUGHKEEPSIE   CLEAR     50  44  80 CALM      30.21R
NEWBURGH       MOCLDY    52  48  87 N7        30.22R
MONTGOMERY     MOCLDY    49  45  86 NE6       30.21R
WHITE PLAINS   CLEAR     55  48  77 N3        30.17R
ISLIP          CLEAR     59  50  72 N10       30.14R
NEW YORK CITY  CLEAR     60  50  69 N9        30.16R
CENTRAL PARK   CLEAR     61  47  59 VRB6      30.19R
$$

NYZ005>009-017-018-044>046-055-056-190800-
CENTRAL


CITY           SKY/WX    TMP DP  RH WIND       PRES   REMARKS
FULTON         CLEAR     38  33  82 CALM      30.29R
SYRACUSE       PTCLDY    41  38  89 CALM      30.28R
ROME           CLEAR     38  35  89 CALM      30.29R
ELMIRA         CLEAR     40  39  97 S3        30.25R FOG
BINGHAMTON     CLEAR     42  39  89 N9        30.23R
MONTICELLO     CLEAR     45  45 100 CALM      30.21S
$$

NYZ026>034-041>043-190800-
NORTH


CITY           SKY/WX    TMP DP  RH WIND       PRES   REMARKS
WATERTOWN      CLEAR     35  29  78 CALM      30.31R
FORT DRUM      NOT AVBL
MASSENA        CLEAR     32  31  96 CALM      30.33R
SARANAC LAKE     N/A     25  23  92 MISG      30.25R
PLATTSBURGH    MOCLDY    37  32  82 CALM      30.30R
$$

NYZ001>004-010>016-019>021-190800-
WEST


CITY           SKY/WX    TMP DP  RH WIND       PRES   REMARKS
NIAGARA FALLS  PTCLDY    38  37  97 CALM      30.26R FOG
BUFFALO        PTCLDY    43  40  89 CALM      30.26R
DUNKIRK        CLEAR     41  40  96 CALM      30.24S
JAMESTOWN      PTCLDY    43  39  87 CALM      30.23R
WELLSVILLE     FOG       43  42  97 CALM      30.24S VSB 1/2
ROCHESTER      CLOUDY    47  42  83 SE8       30.28R
PENN YAN       CLEAR     42  37  82 CALM      30.26R
$$

             KEY
       WCI = WIND CHILL INDEX
       VSB = VISIBILITY
       HX  = HEAT INDEX
$$



USA.gov is the U.S. government's official web portal to all federal, state and local government web resources and services.